Location: Newark
(30.0333°N, 31.2167°E)
Time: 20:30:05
(UTC+00:00)

Vanguard 3 - Pass Details

Date: 23 January 2020
Orbit: 508 x 3263 km, 33.3° (Epoch: 25 February)

Event Time Altitude Azimuth Distance (km) Brightness Sun altitude
Rises 18:28:32 0° 273° (W) 7,208 12.9 -39.8°
Reaches altitude 10° 18:33:39 10° 275° (W) 6,072 12.2 -40.9°
Enters shadow 18:51:35 77° 340° (NNW) 2,441 9.2 -44.7°
